#timestamp,LO_Frequency,Hit 
1500660015.2,286047099.2,N
1500660035.9,286047107.6,N
1500660055.7,286047100.8,N
1500660075.6,286047101.4,N
1500660095.4,286047099.6,N
1500660115.2,286047098.7,N
1500660135.1,286047101.8,N
1500660136.0,286047101.8,N
1500660155.8,286047113.8,N
1500660175.6,286047116.1,N
1500660195.5,286047116.9,N
1500660215.3,286047117.3,N
1500660235.1,286047119.8,N
1500660255.9,286047124.8,N
1500660275.7,286047128.3,N
1500660295.5,286047120.4,N
1500660315.3,286047116.3,N
1500660335.2,286047109.6,N
1500660355.0,286047109.3,N
1500660355.9,286047109.3,N
1500660375.7,286047109.4,N
1500660395.6,286047105.2,N
1500660415.4,286047107.7,N
1500660435.2,286047110.6,N
1500660455.1,286047107.6,N
1500660456.0,286047107.6,N
1500660475.8,286047104.0,N
1500660495.6,286047107.2,N
1500660515.5,286047114.8,N
1500660535.3,286047126.0,N
1500660555.1,286047116.8,N
1500660575.9,286047109.1,N
1500660595.7,286047103.9,N
1500660615.5,286047099.1,N
1500660635.4,286047098.3,N
1500660655.2,286047094.4,N
1500660675.0,286047093.1,N
1500660675.9,286047093.1,N
1500660695.8,286047104.3,N
1500660715.6,286047115.2,N
1500660735.4,286047108.5,N
1500660755.3,286047106.2,N
1500660775.1,286047107.1,N
1500660776.0,286047107.1,N
1500660795.8,286047115.5,N
1500660815.7,286047118.1,N
1500660835.5,286047112.4,N
1500660855.3,286047112.8,N
1500660875.2,286047114.9,N
1500660895.9,286047127.3,N
1500660915.7,286047113.3,N
1500660935.6,286047113.9,N
1500660955.4,286047107.8,N
1500660975.2,286047105.1,N
1500660995.0,286047101.4,N
1500660996.0,286047101.4,N
1500661015.8,286047105.4,N
1500661035.6,286047105.3,N
1500661055.4,286047112.4,N
1500661075.3,286047106.7,N
1500661095.1,286047099.2,N
1500661115.8,286047092.5,N
1500661135.7,286047096.7,N
1500661155.5,286047095.0,N
1500661175.3,286047090.9,N
1500661195.2,286047097.7,N
1500661215.9,286047096.0,N
1500661235.7,286047105.1,N
1500661255.6,286047103.2,N
1500661275.4,286047109.9,N
1500661295.2,286047112.3,N
1500661315.1,286047108.9,N
1500661316.0,286047108.9,N
1500661335.8,286047103.8,N
1500661355.6,286047099.8,N
1500661375.5,286047110.3,N
1500661395.3,286047120.0,N
1500661415.1,286047127.2,N
1500661435.9,286047136.9,N
1500661455.7,286047140.5,N
1500661475.5,286047138.1,N
1500661495.4,286047129.6,N
1500661515.2,286047137.2,N
1500661535.0,286047137.9,N
1500661535.9,286047137.9,N
1500661555.8,286047143.2,N
1500661575.6,286047146.8,N
1500661595.4,286047141.5,N
1500661615.3,286047149.5,N
1500661635.1,286047143.8,N
1500661636.0,286047143.8,N
1500661655.8,286047138.0,N
1500661675.7,286047135.0,N
1500661695.5,286047134.1,N
1500661715.3,286047145.0,N
1500661735.1,286047150.9,N
1500661755.9,286047153.2,N
1500661775.7,286047154.4,N
1500661795.5,286047148.4,N
1500661815.4,286047156.3,N
1500661835.2,286047152.5,N
1500661855.0,286047160.0,N
1500661855.9,286047160.0,N
1500661875.8,286047171.6,N
1500661895.6,286047160.4,N
1500661915.4,286047157.0,N
1500661935.3,286047158.4,N
1500661955.1,286047169.4,N
1500661975.8,286047176.0,N
1500661995.7,286047178.5,N
1500662015.5,286047182.3,N
1500662035.3,286047174.3,N
1500662055.2,286047181.2,N
1500662075.9,286047181.5,N
1500662095.7,286047179.7,N
1500662115.6,286047178.6,N
1500662135.4,286047170.6,N
1500662155.2,286047178.0,N
1500662175.1,286047178.3,N
1500662176.0,286047178.3,N
1500662195.8,286047168.3,N
1500662215.6,286047167.3,N
1500662235.4,286047176.4,N
1500662255.3,286047175.2,N
1500662275.1,286047167.7,N
1500662295.8,286047177.6,N
1500662315.7,286047187.0,N
1500662335.5,286047192.2,N
1500662355.3,286047200.0,N
1500662375.2,286047202.4,N
1500662395.0,286047197.7,N
1500662395.9,286047197.7,N
1500662415.7,286047189.2,N
1500662435.6,286047189.6,N
1500662455.4,286047195.6,N
1500662475.2,286047191.6,N
1500662495.1,286047196.2,N
1500662496.0,286047196.2,N
1500662515.8,286047205.7,N
1500662535.6,286047203.2,N
1500662555.5,286047204.1,N
1500662575.3,286047205.8,N
1500662595.1,286047218.3,N
1500662615.9,286047223.3,N
1500662635.7,286047211.9,N
1500662655.5,286047214.8,N
1500662675.4,286047213.6,N
1500662695.2,286047215.8,N
1500662715.0,286047227.6,N
1500662715.9,286047227.6,N
1500662735.8,286047232.8,N
1500662755.6,286047235.2,N
1500662775.4,286047245.6,N
1500662795.3,286047242.4,N
1500662815.1,286047223.0,N
1500662816.0,286047223.0,N
1500662835.8,286047216.6,N
1500662855.7,286047219.6,N
1500662875.5,286047224.1,N
1500662895.3,286047230.4,N
1500662915.1,286047232.7,N
1500662935.9,286047217.8,N
1500662955.7,286047223.4,N
1500662975.5,286047244.4,N
1500662995.4,286047250.3,N
1500663015.2,286047247.9,N
1500663035.0,286047235.3,N
1500663035.9,286047235.3,N
1500663055.8,286047225.7,N
1500663075.6,286047219.4,N
1500663095.4,286047216.9,N
1500663115.3,286047206.9,N
1500663135.1,286047210.4,N
1500663136.0,286047210.4,N
1500663155.8,286047208.7,N
1500663175.7,286047204.7,N
1500663195.5,286047211.7,N
1500663215.3,286047225.0,N
1500663235.2,286047235.2,N
1500663255.9,286047232.0,N
1500663275.7,286047231.9,N
1500663295.6,286047221.5,N
1500663315.4,286047236.1,N
1500663335.2,286047251.0,N
1500663355.0,286047241.3,N
1500663356.0,286047241.3,N
1500663375.8,286047229.2,N
1500663395.6,286047226.2,N
1500663415.4,286047229.9,N
1500663435.3,286047217.3,N
1500663455.1,286047227.5,N
1500663475.8,286047232.9,N
1500663495.7,286047244.5,N
1500663515.5,286047241.6,N
1500663535.3,286047236.3,N
1500663555.2,286047239.9,N
1500663575.0,286047241.6,N
1500663575.9,286047241.6,N
1500663595.7,286047257.4,N
